Regional Weather Roundup
Issued by NWS Newport/Morehead, NC

Current Version | Previous Version | Graphics & Text | Print | Product List | Glossary Off
Versions: 1 2 3 4 5 6 7 8 9 10 11 12 13 14 15 16 17 18 19 20 21 22 23 24 25 26 27 28 29 30 31 32 33 34 35 36 37 38 39 40 41 42 43 44 45 46 47 48 49 50

000
ASUS42 KMHX 161822
RWRMHX
WEATHER ROUNDUP FOR EASTERN NORTH CAROLINA
NATIONAL WEATHER SERVICE NEWPORT/MOREHEAD CITY NC
200 PM EDT TUE SEP 16 2014

NOTE: "FAIR" INDICATES FEW OR NO CLOUDS BELOW 12,000 FEET
WITH NO SIGNIFICANT WEATHER AND/OR OBSTRUCTIONS TO VISIBILITY

NCZ015>017-031-032-045>047-102-103-161900-
NORTH COAST

CITY           SKY/WX    TMP DP  RH WIND       PRES   REMARKS
EDENTON        SUNNY     81  65  59 NW5       29.97F
ELIZABETH CITY SUNNY     81  65  58 N5        29.98F
KITTY HAWK     CLEAR     80  65  61 W7        29.96F
MANTEO         SUNNY     79  66  63 N7        29.98F

$$

NCZ045>047-081-094-103-104-161900-
CENTRAL COAST

CITY           SKY/WX    TMP DP  RH WIND       PRES   REMARKS
FRISCO         SUNNY     78  69  73 NW7       29.99F
SWANQUARTER      N/A     84 N/A N/A SW5       29.94S

$$

NCZ095-097-098-100-101-161900-
SOUTHERN COAST

CITY           SKY/WX    TMP DP  RH WIND       PRES   REMARKS
BEAUFORT       MOSUNNY   81  72  74 S8        29.99F
CEDAR ISLAND     N/A     81 N/A N/A E3        30.03S
JACKSONVILLE   MOSUNNY   83  70  64 VRB5      29.99F
NEWPORT        NOT AVBL
PINEY ISLAND   PTCLDY    80  69  69 E5        29.99F
WILMINGTON     PTSUNNY   81  72  74 N8        29.99F


$$

NCZ011>013-027>030-043-044-078>080-089-090>093-098-161900-
COASTAL PLAIN

CITY           SKY/WX    TMP DP  RH WIND       PRES   REMARKS
AHOSKIE        SUNNY     78  64  61 CALM      29.98F
CLINTON        MOSUNNY   82  68  63 CALM      30.00F
ELIZABETHTOWN  MOSUNNY   81  69  66 CALM      30.00F
GOLDSBORO      MOSUNNY   83  70  64 CALM      29.98F
GREENVILLE     MOSUNNY   82  66  57 N5        30.01F
HAVELOCK       PTSUNNY   82  69  64 CALM      30.00F
KENANSVILLE    SUNNY     81  64  57 CALM      30.00F
KINSTON        MOSUNNY   81  66  61 CALM      30.00F
NEW BERN       MOSUNNY   84  69  60 VRB3      30.00F
RICHLANDS      SUNNY     82  70  65 W3        29.99F
ROANOKE RAPIDS NOT AVBL
ROCKY MOUNT    MOSUNNY   84  64  50 NE5       29.99F
WASHINGTON     SUNNY     80  66  61 CALM      29.98F
WHITEVILLE     MOSUNNY   82  67  61 CALM      29.99F

$$

AMZ130-135-150-152-154-156-158-170-250-252-270-ANZ085-086-088-633-658-670-161900-
MARINE OBSERVATIONS

STATION/POSITION TIME  TEMP    WIND        PRES    WAVE   SWELL
                       AIR SEA DIR/SP/G            HT/PER HT/PER
                 (UTC) (F)     (DEG/KT/KT) (MB)    (FT/S) (FT/S)
CHESAPEAKE LIGHT 1800   74     280/  6/  7 1016.1
BUOY 44014       1800   74 79  300/ 12/ 14 1014.7    2/ 8   2/ 8
DUCK             1800   76 76   50/  6/  6 1014.4
2E DUCK          1800                        N/A     2/13   2/13
OREGON INLET     1800   78 75   40/  4/  6 1015.2
BUOY 44095       1800      78                N/A     2/13   2/13
20E OREGON INLET NOT AVBL
HATTERAS CG      1800   78 77  260/  5/  8 1015.9
DIAMOND BUOY     1800   76     290/  6/  8 1015.6    2/ 7   2/ 7
CAPE LOOKOUT     1800   77     170/  6/  7 1015.5
BEAUFORT LAB     1800   77 79  200/  7/  9 1015.0
30 SE NEW RIVER  1800   77 82   70/  4/  6 1016.2    2/13   2/13
5 SE WRIGHTSVILL 1800   75 82   90/ 10/ 10   N/A
BUOY 41002       1651   79 83  260/  6/  8 1016.4    3/ 7   2/ 7
BUOY 41004       1800   80 84  340/  6/  8 1015.3    2/ 7   2/ 7

$$


USA.gov is the U.S. government's official web portal to all federal, state and local government web resources and services.